Weather History for Madera, CA

Change the Weather History Date:

Saturday, February 8, 2014

  Actual Average Record
Temperature  
Mean Temperature 56 °F 49 °F  
Max Temperature 60 °F 59 °F 69 °F (2006)
Min Temperature 51 °F 39 °F 26 °F (1989)
Degree Days  
Heating Degree Days 9    
Month to date heating degree days 141  
Since 1 July heating degree days 1656  
Cooling Degree Days 0    
Month to date cooling degree days 0  
Year to date cooling degree days 0  
Growing Degree Days 6 (Base 50)    
Moisture  
Dew Point 48 °F    
Average Humidity 77    
Maximum Humidity 89    
Minimum Humidity 64    
Precipitation  
Precipitation 0.07 in 0.07 in 0.13 in (2013)
Month to date precipitation 0.99 0.50  
Year to date precipitation 1.33 2.95  
Since 1 July precipitation 2.30 6.97  
Snow  
Snow 0.00 in - - ()
Month to date snowfall 0.0  
Since 1 July snowfall 0.0  
Snow Depth 0.00 in    
Sea Level Pressure  
Sea Level Pressure 30.19 in    
Wind  
Wind Speed 11 mph (ESE)    
Max Wind Speed 22 mph    
Max Gust Speed 28 mph    
Visibility 10 miles    
Events Rain    
T = Trace of Precipitation, MM = Missing Value Source: NWS Daily Summary

Daily Weather History Graph

Daily Weather History Graph

Search for Another Location

Airport:

Trip Planner

Search our weather history database for the weather conditions in past years. The results will help you decide how hot, cold, wet, or windy it might be!

Date:

Astronomy

Feb. 08, 2014 Rise Set
Actual Time 6:56 AM PST 5:33 PM PST
Civil Twilight 6:29 AM PST 6:00 PM PST
Nautical Twilight 5:58 AM PST 6:30 PM PST
Astronomical Twilight 5:28 AM PST 7:01 PM PST
Moon 12:33 PM PST (2/8) 2:11 AM PST (2/8)
Length of Visible Light 11h 30m
Length of Day
10h 36m
Waxing Gibbous, 69% of the Moon is Illuminated
Feb 8
Waxing Gibbous
Feb 14
Full
Feb 22
Last Quarter
Mar 1
New
Mar 8
First Quarter

Hourly Weather History & Observations

Time (PST) Temp. Dew Point Humidity Pressure Visibility Wind Dir Wind Speed Gust Speed Precip Events Conditions
12:53 AM 51.1 °F 48.0 °F 89% 30.19 in 9.0 mi North - - N/A   Overcast
1:53 AM 52.0 °F 46.9 °F 83% 30.18 in 10.0 mi North - - N/A   Overcast
2:53 AM 52.0 °F 46.9 °F 83% 30.18 in 10.0 mi North - - 0.01 in Rain Light Rain
3:53 AM 51.1 °F 46.9 °F 86% 30.16 in 10.0 mi North - - 0.01 in   Overcast
4:53 AM 51.1 °F 46.9 °F 86% 30.16 in 10.0 mi North - - N/A   Overcast
5:53 AM 51.1 °F 46.9 °F 86% 30.18 in 10.0 mi North - - N/A   Overcast
6:53 AM 51.1 °F 46.9 °F 86% 30.18 in 10.0 mi North - - 0.01 in Rain Light Rain
7:53 AM 52.0 °F 46.9 °F 83% 30.21 in 9.0 mi ESE 10.4 mph - 0.02 in Rain Light Rain
8:53 AM 53.1 °F 48.0 °F 83% 30.21 in 10.0 mi ESE 16.1 mph - 0.00 in Rain Light Rain
9:53 AM 53.1 °F 48.0 °F 83% 30.25 in 10.0 mi ESE 12.7 mph - 0.01 in Rain Light Rain
10:53 AM 55.0 °F 48.9 °F 80% 30.22 in 10.0 mi ESE 18.4 mph 25.3 mph 0.01 in   Clear
11:53 AM 57.0 °F 48.9 °F 74% 30.20 in 10.0 mi ESE 17.3 mph - N/A   Scattered Clouds
12:53 PM 59.0 °F 48.9 °F 69% 30.17 in 10.0 mi SSE 17.3 mph - 0.00 in   Overcast
1:53 PM 60.1 °F 48.9 °F 67% 30.18 in 10.0 mi SE 15.0 mph - N/A   Overcast
2:53 PM 60.1 °F 50.0 °F 69% 30.21 in 10.0 mi SE 8.1 mph - N/A   Overcast
3:53 PM 60.1 °F 50.0 °F 69% 30.20 in 10.0 mi East 10.4 mph - N/A   Overcast
4:53 PM 57.9 °F 48.9 °F 72% 30.20 in 10.0 mi East 12.7 mph - N/A   Mostly Cloudy
5:53 PM 57.9 °F 48.9 °F 72% 30.20 in 10.0 mi ESE 10.4 mph - N/A   Overcast
6:53 PM 57.9 °F 48.9 °F 72% 30.20 in 10.0 mi East 10.4 mph - N/A   Overcast
7:53 PM 57.9 °F 50.0 °F 75% 30.19 in 10.0 mi ESE 9.2 mph - N/A   Overcast
8:53 PM 55.9 °F 50.0 °F 80% 30.20 in 10.0 mi ESE 8.1 mph - N/A   Clear
9:53 PM 57.0 °F 50.0 °F 77% 30.19 in 10.0 mi ESE 8.1 mph - N/A   Clear
10:53 PM 55.0 °F 48.9 °F 80% 30.20 in 10.0 mi ESE 6.9 mph - N/A   Clear
11:53 PM 55.9 °F 48.9 °F 77% 30.20 in 10.0 mi East 8.1 mph - N/A   Clear